This demonstration page uses our WeatherBlox Daily Observations layout. Learn more.

38.88101, -77.10428

Hourly Observations for May 23, 2020

Temp ( °F °C ) Dew Point ( °F °C ) Humidity (%) Winds ( mph kmh ) Pressure ( in mb ) Visibility ( mi km ) Precip ( " mm )
12:07 am 00:07 Cloudy 70 21.1 65 18.3 84 84 Calm 30.01 1016 10 16.0934 0 0
12:19 am 00:19 Cloudy 69 20.6 65 18.3 87 87 NNW 3 6 30 1016 10 16.0934 0 0
12:52 am 00:52 Cloudy 69 20.6 64 17.8 84 84 NNW 8 13 29.99 1016 10 16.0934 0 0
1:52 am 01:52 Cloudy with Light Rain 67 19.4 65 18.3 93 93 NNW 6 9 29.97 1015 10 16.0934 0.02 0.508
2:35 am 02:35 Cloudy with Heavy Rain 66 18.9 64 17.8 93 93 N 9 15 29.97 1015 3 4.82802 0.05 1.27
2:52 am 02:52 Cloudy with Light Rain 66 18.9 64 17.8 93 93 NNW 9 15 29.98 1015 7 11.26538 0.13 3.302
3:32 am 03:32 Cloudy with Rain 65 18.3 62 16.7 90 90 ENE 3 6 29.98 1015 4 6.43736 0.12 3.048
3:52 am 03:52 Cloudy with Light Rain 65 18.3 62 16.7 90 90 Calm 29.98 1015 10 16.0934 0.13 3.302
4:52 am 04:52 Cloudy with Light Rain 65 18.3 63 17.2 93 93 Calm 29.98 1015 10 16.0934 0.001 0.001
5:52 am 05:52 Cloudy 64 17.8 63 17.2 96 96 Calm 29.97 1015 10 16.0934 0.01 0.254
6:52 am 06:52 Mostly Cloudy 64 17.8 63 17.2 96 96 Calm 29.98 1015 10 16.0934 0 0
7:52 am 07:52 Mostly Cloudy 67 19.4 63 17.2 87 87 NNW 7 11 30.01 1016 10 16.0934 0 0
8:27 am 08:27 Mostly Cloudy 68 20 64 17.8 87 87 N 7 11 30.01 1016 10 16.0934 0 0
8:31 am 08:31 Mostly Cloudy 68 20 64 17.8 87 87 N 7 11 30.02 1017 10 16.0934 0 0
8:52 am 08:52 Mostly Cloudy 69 20.6 64 17.8 84 84 N 7 11 30.02 1017 10 16.0934 0 0
8:56 am 08:56 Mostly Cloudy 70 21.1 64 17.8 82 82 NNW 9 15 30.02 1017 10 16.0934 0 0
9:52 am 09:52 Mostly Cloudy 71 21.7 64 17.8 79 79 VRB 5 7 30.02 1017 10 16.0934 0 0
10:52 am 10:52 Mostly Cloudy 75 23.9 64 17.8 69 69 NNW 10 17 30.02 1017 10 16.0934 0 0
11:52 am 11:52 Mostly Cloudy 77 25 64 17.8 64 64 N 8 13 30.03 1017 10 16.0934 0 0
12:52 pm 12:52 Mostly Cloudy 77 25 62 16.7 60 60 N 6 9 30.01 1016 10 16.0934 0 0
1:52 pm 13:52 Partly Cloudy 81 27.2 61 16.1 51 51 WNW 12 19 29.99 1016 10 16.0934 0 0
2:52 pm 14:52 Mostly Cloudy 81 27.2 60 15.6 49 49 NNW 15 24 29.98 1015 10 16.0934 0 0
3:52 pm 15:52 Mostly Cloudy 83 28.3 61 16.1 48 48 WNW 10 17 29.98 1015 10 16.0934 0 0
4:52 pm 16:52 Mostly Cloudy 82 27.8 59 15 46 46 NNW 10 17 29.97 1015 10 16.0934 0 0
5:52 pm 17:52 Mostly Cloudy 83 28.3 59 15 44 44 W 10 17 29.98 1015 10 16.0934 0 0
6:52 pm 18:52 Mostly Cloudy 81 27.2 60 15.6 49 49 NW 8 13 29.98 1015 10 16.0934 0 0
7:52 pm 19:52 Partly Cloudy 79 26.1 60 15.6 52 52 NW 7 11 29.99 1016 10 16.0934 0 0
8:52 pm 20:52 Partly Cloudy 77 25 60 15.6 56 56 NNW 3 6 30 1016 10 16.0934 0 0
9:52 pm 21:52 Mostly Clear 72 22.2 64 17.8 76 76 Calm 30.02 1017 10 16.0934 0 0
10:52 pm 22:52 Mostly Cloudy 72 22.2 64 17.8 76 76 NNE 5 7 30.03 1017 10 16.0934 0 0
11:52 pm 23:52 Mostly Clear 72 22.2 64 17.8 76 76 ENE 13 20 30.06 1018 10 16.0934 0 0

Powered by AerisWeather